Date,TemperatureHighF,TemperatureAvgF,TemperatureLowF,DewpointHighF,DewpointAvgF,DewpointLowF,HumidityHigh,HumidityAvg,HumidityLow,PressureMaxIn,PressureMinIn,WindSpeedMaxMPH,WindSpeedAvgMPH,GustSpeedMaxMPH,PrecipitationSumIn
2013-1-1,35.8,33.0,32.5,35.1,31.4,24.9,98,94,73,32.13,9.45,7,0,7,0.95
2013-1-2,39.0,25.9,18.1,24.4,17.2,0.0,89,71,40,29.38,29.29,20,0,20,0.00
2013-1-3,42.3,31.5,16.2,20.7,15.0,11.0,86,52,30,29.50,29.35,8,2,9,0.04
2013-1-4,41.2,32.7,26.4,20.8,17.4,13.7,73,54,36,29.50,24.57,20,3,20,0.00
2013-1-5,45.9,32.5,21.0,26.9,20.5,16.1,93,64,39,29.56,24.57,20,1,20,1.06
2013-1-6,41.0,34.2,28.4,30.6,24.1,16.7,74,66,59,29.53,24.57,20,2,20,0.00
2013-1-7,46.0,30.8,20.3,26.7,18.9,15.6,90,64,37,29.62,24.57,32,1,32,1.05
2013-1-8,54.1,36.4,24.4,28.0,23.3,18.2,87,62,33,29.47,29.41,20,1,20,1.01
2013-1-9,57.2,44.2,33.3,47.1,34.0,26.5,98,69,40,29.68,29.41,8,1,8,0.00
2013-1-10,47.1,38.8,28.9,38.4,30.4,0.0,96,73,52,29.68,29.29,19,1,19,0.00
2013-1-11,64.0,54.9,47.1,56.5,47.9,38.4,98,79,51,29.29,29.06,19,2,19,0.37
2013-1-12,66.4,60.4,52.9,62.9,58.7,52.2,98,94,79,29.20,24.57,12,1,12,0.04
2013-1-13,64.9,58.8,36.7,60.9,56.2,34.8,98,92,73,29.32,24.57,20,3,20,0.83
2013-1-14,36.7,29.3,25.2,35.1,21.3,16.5,94,72,52,32.13,24.57,29,2,229,0.29
2013-1-15,33.1,28.9,23.5,25.4,20.7,18.2,86,72,57,62.36,24.57,86,4,86,0.29
2013-1-16,30.6,30.0,29.7,28.0,27.3,25.1,92,89,81,29.26,1.89,5,1,5,0.00
2013-1-17,38.3,31.8,27.7,24.2,19.6,12.8,73,61,52,29.56,29.35,10,1,10,0.00
2013-1-18,42.1,30.4,17.8,22.4,14.2,0.0,81,53,29,32.13,22.68,20,2,20,0.27
2013-1-19,57.4,49.9,34.0,22.7,18.7,15.0,52,30,20,32.13,22.68,57,6,57,0.00
2013-1-20,46.4,36.9,26.6,30.2,11.7,1.1,60,36,24,39.69,1.89,21,3,21,0.00
2013-1-21,33.3,23.1,13.3,16.6,3.5,-6.5,63,43,32,34.02,22.68,29,2,29,0.15
2013-1-22,54.7,14.6,6.4,23.1,-7.5,-12.7,44,36,27,107.72,1.89,21,2,21,0.00
2013-1-23,23.5,18.3,10.4,2.2,-3.1,-10.2,49,38,35,29.50,29.23,9,1,9,0.00
2013-1-24,30.6,20.9,14.2,4.3,-1.0,-8.2,49,38,25,29.71,29.23,15,3,15,0.00
2013-1-25,27.1,22.9,19.6,18.4,9.3,-0.8,78,57,38,29.59,29.17,10,2,10,0.00
2013-1-26,40.3,25.7,15.4,20.5,14.3,8.4,93,65,35,29.59,29.29,8,1,8,0.00
2013-1-27,40.3,30.4,20.1,37.1,18.9,13.0,98,64,40,29.62,29.35,65,2,65,0.17
2013-1-28,52.2,47.2,37.6,51.6,45.7,36.9,98,95,72,29.35,29.20,14,3,14,0.16
2013-1-29,69.8,58.8,49.1,56.9,52.4,48.6,98,81,51,29.26,28.79,13,3,13,0.00
2013-1-30,68.0,54.2,33.3,57.8,47.9,19.3,98,80,56,28.82,28.47,21,5,21,0.67
2013-1-31,33.8,28.1,18.1,21.0,13.3,5.0,84,54,36,29.20,28.73,12,2,15,0.00
2013-2-1,27.7,13.4,7.0,12.5,-3.8,-9.4,80,46,32,29.53,29.17,12,2,12,0.00
2013-2-2,38.7,23.8,10.4,25.4,14.8,-6.3,85,69,46,29.50,29.12,10,2,10,0.00
2013-2-3,33.6,24.0,13.5,20.0,13.4,6.8,77,65,40,29.29,29.09,11,2,11,0.00
2013-2-4,37.6,26.4,12.2,33.7,20.5,6.4,98,80,45,29.29,28.97,12,1,12,0.00
2013-2-5,43.2,35.6,30.2,33.5,28.6,22.1,98,77,49,29.20,29.00,7,0,7,0.16
2013-2-6,39.9,34.7,28.9,29.5,24.7,21.6,79,67,49,29.44,29.17,53,1,53,0.13
2013-2-7,64.0,45.3,31.1,31.3,26.8,24.2,79,53,24,29.41,29.03,10,1,10,0.00
2013-2-8,50.4,38.6,27.0,46.4,29.3,14.9,98,70,43,29.53,29.00,10,3,10,0.08
2013-2-9,48.7,33.0,21.2,23.3,13.8,9.5,80,48,25,29.59,29.38,172,2,172,0.00
2013-2-10,57.4,43.9,31.3,43.4,23.8,12.9,85,48,25,29.41,29.00,17,3,17,1.37
2013-2-11,56.8,49.3,37.8,51.2,39.2,18.5,98,74,27,29.23,28.94,26,4,26,0.00
2013-2-12,57.0,39.9,27.3,29.2,19.7,11.2,75,47,23,29.29,29.06,9,1,9,0.00
2013-2-13,39.7,33.9,31.5,30.6,25.5,17.2,86,72,52,29.09,28.91,6,1,6,0.00
2013-2-15,45.1,34.6,24.1,29.8,23.4,17.6,84,65,39,29.32,24.57,50,2,50,0.17
2013-2-16,37.0,24.7,17.6,25.3,14.6,1.7,91,68,32,29.32,29.14,30,1,30,1.54
2013-2-17,39.2,24.2,10.4,15.8,3.3,-6.9,79,44,22,29.38,29.26,7,1,7,0.17
2013-2-18,61.9,42.8,22.8,36.6,16.3,0.8,69,35,24,29.41,28.94,27,4,27,0.17
2013-2-19,45.9,36.8,24.8,42.1,28.4,6.8,98,73,42,29.26,28.88,17,5,17,1.74
2013-2-20,37.0,26.1,20.3,11.3,6.6,3.1,62,44,30,29.44,29.26,10,3,10,0.17
2013-2-21,38.1,27.1,19.0,23.5,12.7,7.9,78,55,39,29.50,29.23,13,3,13,0.17
2013-2-22,47.5,36.8,29.5,41.4,33.4,23.5,98,88,68,29.26,29.03,10,2,10,0.17
2013-2-23,53.1,39.4,32.2,35.3,23.7,13.7,98,59,27,29.15,29.06,7,2,7,1.91
2013-2-24,49.3,31.9,25.5,21.8,18.3,13.3,77,60,28,29.32,29.12,8,1,8,1.91
2013-2-25,51.4,33.2,23.9,19.1,16.7,14.4,76,54,27,29.35,29.17,14,2,14,1.91
2013-2-27,49.8,34.5,33.6,32.3,29.6,18.0,95,83,28,29.20,28.88,7,2,7,0.54
2013-2-28,36.3,34.4,32.4,32.5,29.8,26.2,92,83,75,29.12,28.88,8,2,9,0.04
2013-3-1,37.6,34.3,30.2,34.5,31.5,19.1,98,90,63,29.20,29.09,9,1,9,0.04
2013-3-2,34.3,28.4,27.0,21.9,17.0,13.0,71,62,54,29.23,29.17,8,2,8,0.04
2013-3-3,34.3,28.2,20.3,20.3,15.5,10.9,73,59,45,29.26,29.17,8,1,8,0.00
2013-3-4,50.9,33.0,16.9,23.0,15.0,11.6,87,52,25,29.32,29.12,9,1,9,0.00
2013-3-5,39.4,36.7,30.4,38.2,28.5,15.9,98,74,41,29.20,28.70,15,2,15,0.29
2013-3-6,36.5,31.1,28.2,29.9,27.4,0.0,98,86,68,29.44,28.82,6,1,6,0.00
2013-3-7,47.3,35.3,30.4,30.9,26.7,22.5,92,73,44,29.53,29.41,31,0,31,0.13
2013-3-8,52.0,36.3,24.4,24.6,19.8,14.3,84,56,26,29.62,29.50,7,2,7,0.12
2013-3-9,62.1,45.2,29.8,27.4,24.0,21.3,77,48,25,29.56,29.23,10,2,10,0.08
2013-3-10,73.2,59.5,50.5,35.2,24.5,20.1,46,27,16,29.23,29.00,13,3,13,0.08
2013-3-11,55.9,48.1,37.9,53.8,41.7,28.5,98,80,42,29.06,28.79,17,4,17,0.95
2013-3-12,47.5,38.5,33.1,29.7,23.5,19.1,76,56,37,29.23,29.03,10,3,10,0.08
2013-3-13,39.7,31.6,26.1,30.5,21.9,10.8,92,69,39,29.50,29.14,15,2,15,0.04
2013-3-14,53.1,33.9,19.8,24.5,13.3,5.0,86,49,19,29.53,29.32,9,1,9,0.04
2013-3-15,57.0,42.2,28.2,31.7,26.0,11.2,88,55,35,29.35,28.97,10,2,10,0.04
2013-3-16,67.3,49.0,37.9,49.5,38.5,29.0,98,70,35,29.20,28.79,30,3,30,0.17
2013-3-17,37.9,35.4,33.3,33.5,28.4,22.9,96,76,62,29.32,29.12,24,4,24,0.12
2013-3-18,49.8,41.8,34.3,49.3,39.7,25.9,98,93,56,29.14,28.79,25,3,25,0.62
2013-3-19,50.4,39.3,29.8,33.4,15.8,2.0,88,43,19,29.29,29.00,26,5,26,0.04
2013-3-20,48.0,34.1,24.1,17.5,9.3,1.8,61,36,22,29.26,29.06,26,4,26,0.04
2013-3-21,41.2,26.5,20.5,10.3,4.9,2.4,55,40,24,29.20,28.85,11,2,11,0.00
2013-3-22,53.8,33.3,18.0,16.0,9.1,0.5,68,40,18,29.23,29.12,10,2,10,0.00
2013-3-23,62.6,43.4,28.9,19.5,13.7,9.4,50,32,16,29.23,29.06,4,4,4,0.00
2013-3-24,39.2,35.2,32.7,34.0,25.7,15.1,98,72,37,29.06,28.58,20,4,20,0.08
2013-3-25,36.7,33.8,30.7,33.5,30.4,26.6,98,88,71,29.14,28.58,22,3,22,0.17
2013-3-26,44.6,36.0,31.8,31.1,25.4,17.5,92,67,41,29.44,29.12,28,2,28,0.29
2013-3-27,53.4,37.7,28.4,26.6,19.7,14.9,79,50,28,29.47,29.38,9,2,9,0.00
2013-3-28,60.6,34.4,25.2,22.3,15.4,11.2,67,48,19,29.50,29.41,13,1,13,5.68
2013-3-29,65.8,44.2,27.9,26.4,20.4,15.2,77,43,18,29.50,29.35,9,1,12,5.68
2013-3-30,69.1,49.2,32.4,30.4,23.4,16.8,72,41,17,29.41,29.12,15,2,15,0.00
2013-3-31,61.2,49.9,45.9,47.9,36.6,24.8,94,62,35,29.12,28.94,20,2,20,0.00
2013-4-1,58.6,42.8,33.3,37.0,18.7,6.5,79,41,17,29.32,28.97,17,3,17,0.00
2013-4-2,58.6,40.7,22.5,16.4,9.2,1.0,57,29,17,29.44,29.29,15,3,15,0.00
2013-4-3,58.1,40.1,25.0,13.5,8.8,2.6,51,29,17,29.56,29.41,20,3,20,5.68
2013-4-4,59.9,43.8,32.5,15.6,11.0,7.1,41,27,17,29.50,29.14,14,2,14,0.00
2013-4-5,72.5,50.4,31.3,27.0,19.0,11.3,61,32,14,29.32,29.14,10,2,10,5.68
2013-4-6,74.3,54.7,36.9,26.7,20.2,13.1,43,27,14,29.38,29.06,12,3,14,0.00
2013-4-7,78.6,64.0,56.3,54.8,36.3,24.0,93,40,21,29.17,29.06,22,3,22,0.13
2013-4-8,75.0,62.1,50.9,53.1,46.3,39.3,95,61,31,29.17,29.06,0,0,0,0.00
2013-4-9,86.7,69.4,53.6,52.0,47.1,38.6,82,50,19,29.23,29.09,15,2,15,0.00
2013-4-10,88.7,73.5,63.5,56.8,50.8,44.3,71,47,22,29.14,28.94,17,3,17,0.00
2013-4-11,67.8,63.1,57.7,61.4,56.4,48.9,98,80,53,29.00,28.70,28,1,28,0.54
2013-4-12,57.7,47.6,36.1,57.2,34.4,23.8,98,64,31,29.12,28.70,23,3,23,0.12
2013-4-13,66.0,48.1,33.3,33.5,26.9,19.5,88,49,20,29.20,29.12,20,3,20,0.00
2013-4-14,77.4,57.8,38.8,35.5,30.9,26.9,76,41,18,29.26,29.06,13,2,13,0.00
2013-4-15,72.7,61.8,54.1,49.9,43.9,34.7,82,53,35,29.17,29.06,12,2,12,6.47
2013-4-16,88.2,66.5,54.5,59.2,54.2,47.9,98,69,30,29.35,29.12,20,3,20,0.25
2013-4-17,84.2,67.1,57.0,62.7,56.9,48.7,98,74,31,29.38,29.12,30,2,30,0.04
2013-4-18,88.2,73.6,62.2,57.9,50.6,37.8,79,50,20,29.12,28.85,28,4,28,0.00
2013-4-19,72.1,50.1,38.3,61.8,35.5,21.8,98,60,35,29.17,28.61,14,4,14,0.67
2013-4-20,62.6,45.4,35.4,32.7,23.3,12.8,87,47,19,29.56,29.17,19,3,19,0.00
2013-4-21,67.5,48.3,34.0,26.1,19.8,14.3,54,35,16,29.68,29.53,17,4,17,0.00
2013-4-22,63.7,45.5,38.8,35.2,23.5,18.9,55,42,23,29.56,29.29,5,1,5,1.30
2013-4-23,75.9,60.9,47.1,43.7,37.9,30.3,65,44,27,29.32,29.06,0,0,0,0.00
2013-4-24,64.2,51.7,36.0,56.3,40.4,27.6,95,67,45,29.38,28.97,13,1,13,0.78
2013-4-25,64.4,47.2,32.4,42.9,28.3,17.8,98,56,24,29.56,29.38,22,3,22,0.00
2013-4-26,71.1,52.0,33.6,29.9,23.6,15.8,74,39,14,29.65,29.47,11,1,11,0.00
2013-4-27,67.8,56.6,43.5,47.5,32.8,25.1,70,43,22,29.50,29.23,13,2,13,0.00
2013-4-28,74.1,59.8,53.1,59.7,53.2,47.1,98,80,42,29.26,29.00,21,2,21,0.09
2013-4-29,65.7,58.2,51.6,58.3,53.0,46.7,98,84,53,29.17,29.06,30,1,30,0.04
2013-4-30,89.2,65.1,47.7,62.2,46.5,36.3,98,61,18,29.23,29.12,8,1,26,0.00
2013-5-1,93.9,63.7,53.1,54.7,48.2,37.0,93,64,17,29.35,29.20,15,1,15,8.34
2013-5-2,81.0,68.1,59.0,45.6,43.2,39.9,57,42,25,29.41,29.32,10,2,10,0.00
2013-5-5,52.2,52.2,52.2,50.5,50.5,50.5,94,94,94,29.32,29.12,4,4,4,0.00
2013-5-6,66.2,56.1,52.5,56.5,52.9,48.2,98,90,55,29.12,29.06,26,5,30,0.49
2013-5-7,81.1,62.2,54.0,59.9,54.0,41.9,98,79,30,29.17,29.06,11,1,11,0.00
2013-5-8,87.6,65.0,52.7,60.8,52.6,38.4,98,72,19,29.17,29.06,29,1,29,0.05
2013-5-9,94.1,63.8,53.2,62.0,54.6,35.9,98,78,17,29.20,29.06,26,0,26,9.79
2013-5-10,73.0,64.2,60.8,63.8,58.4,51.5,98,83,54,29.12,28.94,0,0,0,0.83
2013-5-11,61.7,55.1,46.4,61.1,49.5,36.1,98,83,55,29.17,29.00,11,1,11,0.08
2013-5-12,68.7,50.2,37.4,45.3,29.8,17.6,98,54,17,29.29,29.12,11,1,11,0.00
2013-5-13,75.0,53.6,38.1,37.5,27.1,15.8,81,42,13,29.35,29.26,10,1,10,0.00
2013-5-14,81.3,54.2,42.8,38.7,31.8,27.1,66,45,21,29.32,29.12,0,0,0,0.00
2013-5-19,97.0,78.8,66.7,70.1,62.3,37.4,98,62,21,29.14,29.03,7,1,7,0.62
2013-5-20,94.3,73.6,65.8,68.6,64.6,53.8,98,78,30,29.14,29.06,11,1,11,0.00
2013-5-21,94.3,75.5,66.0,67.3,58.8,44.6,91,61,20,29.12,28.94,11,2,11,11.32
2013-5-22,87.1,70.8,61.2,62.9,55.7,46.3,93,64,29,29.03,28.88,25,2,25,0.46
2013-5-23,76.3,64.8,53.2,64.7,51.0,34.1,95,65,33,29.20,28.97,8,2,8,0.00
2013-5-24,76.8,57.5,48.0,34.6,27.3,18.5,52,33,15,29.47,29.20,13,3,13,0.04
2013-5-25,75.2,57.8,44.2,32.2,27.9,22.1,57,34,18,29.56,29.38,3,3,3,0.00
2013-5-26,59.9,56.1,54.9,35.7,33.0,26.3,47,42,29,29.47,29.41,3,3,3,0.00
2013-5-30,98.6,79.1,59.9,54.1,46.5,28.4,62,36,16,29.47,29.14,10,1,10,0.09
2013-5-31,91.6,73.2,67.3,62.5,50.8,41.2,81,49,21,29.26,29.09,23,1,23,0.41
2013-6-1,86.9,71.0,67.1,64.1,56.6,45.4,81,63,28,29.12,28.94,24,1,24,0.29
2013-6-2,90.9,72.8,65.3,63.0,47.5,35.3,80,46,18,29.09,28.97,23,1,23,0.29
2013-6-3,81.3,66.2,57.2,43.9,36.4,30.8,49,35,20,29.20,29.06,20,1,20,0.00
2013-6-4,87.3,66.2,51.4,41.0,29.7,18.5,63,31,11,29.32,29.20,10,1,10,0.00
2013-6-5,93.7,70.5,55.9,53.5,37.9,28.9,64,33,14,29.26,29.00,9,1,9,0.00
2013-6-6,81.0,66.1,63.9,61.6,56.8,44.6,80,73,33,29.03,28.94,8,0,8,0.41
2013-6-11,97.3,75.7,61.3,62.1,47.9,35.7,86,45,13,29.12,29.00,12,1,12,0.00
2013-6-12,100.9,80.0,67.5,59.6,53.0,43.7,70,42,17,29.09,28.91,22,1,22,0.00
2013-6-13,85.3,75.2,66.0,60.1,47.9,32.9,70,40,19,29.09,28.76,20,2,20,0.50
2013-6-14,90.9,71.7,57.4,45.9,37.2,30.4,55,30,15,29.23,29.06,8,1,8,0.00
2013-6-15,95.4,73.9,57.6,48.2,40.6,34.5,62,33,14,29.29,29.12,6,0,6,0.00
2013-6-16,83.5,71.4,65.7,57.6,50.6,44.2,72,49,30,29.20,29.12,25,0,25,0.00
2013-6-17,100.9,72.9,64.4,63.5,55.0,35.3,83,60,15,29.14,29.00,12,0,12,0.41
2013-6-18,95.9,71.4,65.7,57.4,50.1,34.5,71,50,15,29.14,29.00,29,2,29,0.08
2013-6-19,92.1,71.7,58.3,48.9,38.0,26.0,68,34,12,29.29,29.12,10,2,10,0.05
2013-6-20,98.8,75.9,60.4,42.8,35.8,27.0,45,26,11,29.38,29.29,25,1,24,0.00
2013-6-21,99.1,79.2,62.6,47.8,40.2,31.0,51,28,10,29.38,29.26,11,1,11,0.00
2013-6-22,100.6,74.0,66.2,59.0,48.7,35.8,70,45,12,29.35,29.23,6,0,6,0.00
2013-6-23,100.4,78.8,66.4,60.1,47.1,30.5,70,38,11,29.35,29.23,9,1,9,0.00
2013-6-24,97.0,75.9,65.8,59.0,49.1,40.4,70,42,17,29.35,29.17,29,1,29,14.73
2013-6-25,101.5,81.1,67.3,64.2,52.0,41.3,80,42,15,29.26,29.06,28,1,28,0.00
2013-6-26,93.2,74.4,67.1,62.3,55.2,44.8,82,55,22,29.12,28.94,23,1,24,0.79
2013-6-27,95.5,75.6,66.7,66.8,55.8,40.8,87,58,17,29.00,28.88,10,1,10,0.04
2013-6-28,97.2,77.1,64.0,61.2,47.5,27.2,70,42,11,28.91,28.73,27,1,27,0.04
2013-6-29,83.3,69.2,61.9,63.4,52.6,41.8,79,59,27,28.85,28.76,0,0,0,0.62
2013-6-30,95.4,73.2,62.1,60.9,49.8,28.4,86,52,11,29.00,28.82,10,1,10,0.00
2013-7-1,82.6,68.4,64.6,61.8,53.5,43.7,78,61,29,29.12,28.97,14,2,14,0.04
2013-7-2,93.2,73.9,64.4,61.6,51.0,37.4,87,51,17,29.20,29.06,20,1,20,0.04
2013-7-3,87.1,75.1,66.9,62.2,51.1,40.1,78,47,21,29.29,29.17,27,0,27,0.00
2013-7-4,72.5,70.0,67.1,63.2,58.6,51.4,83,68,52,29.35,29.23,18,0,18,0.00
2013-7-5,81.9,70.9,65.5,72.4,65.5,50.8,98,85,39,29.32,29.17,3,0,6,0.08
2013-7-6,82.6,71.1,68.5,70.5,67.2,50.0,98,90,37,29.26,29.14,12,0,12,0.21
2013-7-7,94.8,74.2,65.8,64.8,52.6,36.5,90,55,16,29.26,29.14,6,0,6,0.00
2013-7-8,95.5,73.3,65.7,64.9,53.9,39.4,86,57,17,29.29,29.17,26,0,26,16.30
2013-7-9,96.4,79.5,72.0,64.6,54.6,42.5,69,46,17,29.26,29.12,9,1,9,16.30
2013-7-10,96.6,76.9,68.0,66.4,59.7,42.9,76,59,19,29.26,29.00,10,1,10,0.00
2013-7-11,90.7,73.8,66.0,64.9,48.3,32.6,86,48,15,29.17,29.09,11,2,11,0.00
2013-7-12,89.2,71.4,59.7,42.5,34.8,26.3,52,29,13,29.26,29.14,12,2,12,16.30
2013-7-13,69.4,66.0,65.3,42.0,40.7,37.9,42,40,33,29.23,29.17,5,2,6,0.00
2013-7-14,65.5,65.5,65.5,41.2,41.2,41.2,41,41,41,29.20,29.20,3,3,3,0.00
2013-7-15,65.5,65.5,65.5,41.2,41.2,41.2,41,41,41,29.20,29.20,3,3,3,0.00
2013-7-16,65.5,65.5,65.5,41.2,41.2,41.2,41,41,41,29.20,29.20,3,3,3,0.00
2013-7-17,65.5,65.5,65.5,41.2,41.2,41.2,41,41,41,29.20,29.20,3,3,3,0.00
2013-7-18,65.5,65.5,65.5,41.2,41.2,41.2,41,41,41,29.20,29.20,3,3,3,0.00
2013-7-19,97.5,80.7,65.5,66.6,54.4,40.5,72,45,17,29.23,29.06,12,1,12,0.00
2013-7-20,95.4,78.5,70.5,63.7,51.6,34.7,74,44,17,29.12,29.00,29,1,29,0.00
2013-7-21,99.5,74.6,34.2,58.5,50.9,0.0,66,47,13,29.12,29.03,25,0,25,0.00
2013-7-22,86.2,72.9,68.9,65.6,59.1,46.1,81,64,30,29.09,28.91,15,0,15,0.67
2013-7-23,95.5,76.3,68.7,70.5,54.8,39.3,86,53,17,29.03,28.88,28,1,28,0.04
2013-7-24,87.4,69.9,60.1,53.2,37.9,30.0,52,33,16,29.14,28.97,10,2,10,0.00
2013-7-25,91.4,69.3,56.5,41.8,32.5,21.5,57,29,11,29.26,29.12,11,2,11,17.01
2013-7-26,88.9,70.9,56.7,47.0,36.3,27.0,62,32,13,29.26,29.12,6,1,12,0.00
2013-7-27,80.6,68.0,62.6,56.6,44.9,37.4,67,44,29,29.12,28.97,21,0,21,0.21
2013-7-28,86.9,66.9,54.7,38.4,29.6,19.2,51,28,11,29.20,29.03,29,1,29,0.00
2013-7-29,92.8,69.2,54.9,40.7,32.6,22.0,55,30,11,29.35,29.20,6,1,6,17.22
2013-7-30,88.5,70.4,57.4,47.6,36.6,27.0,58,32,13,29.38,29.23,7,0,7,0.00
2013-7-31,81.5,70.6,34.2,54.7,45.7,0.0,67,43,24,29.29,29.06,20,1,20,0.08
2013-8-1,95.2,75.9,64.6,59.0,44.4,22.8,72,40,11,29.14,29.06,7,1,7,17.30
2013-8-2,94.3,73.4,58.8,47.2,36.7,27.0,60,30,11,29.17,29.09,17,1,17,0.00
2013-8-3,88.3,73.6,65.8,51.3,42.4,33.4,49,34,19,29.14,29.09,6,1,6,0.04
2013-8-4,88.7,70.4,61.0,45.6,31.5,19.8,48,26,11,29.26,29.14,11,2,11,0.00
2013-8-5,90.9,70.3,57.2,40.7,31.5,0.0,50,26,12,29.29,29.12,27,1,27,0.00
2013-8-6,88.3,74.5,66.6,48.3,34.5,28.7,46,24,16,29.14,29.09,29,1,29,0.00
2013-8-7,92.5,76.2,67.6,60.8,50.9,40.2,69,45,18,29.12,29.00,29,1,29,0.00
2013-8-8,91.2,76.9,69.4,63.8,55.5,40.5,75,52,20,29.12,29.00,27,1,27,0.62
2013-8-9,88.5,75.3,68.5,68.1,54.2,38.3,85,54,20,29.17,29.06,20,1,20,0.83
2013-8-10,93.9,76.9,68.0,61.0,46.0,30.0,69,37,14,29.26,29.12,27,0,27,0.00
2013-8-11,100.4,78.8,69.4,57.8,43.2,29.5,62,33,10,29.23,29.14,10,0,10,0.00
2013-8-12,95.7,76.1,64.8,56.5,43.6,29.8,64,35,11,29.26,29.00,6,1,6,0.00
2013-8-13,90.3,73.8,61.7,59.0,39.5,18.5,65,33,13,29.20,29.00,8,1,8,0.00
2013-8-14,85.5,61.9,53.2,33.5,23.7,15.8,45,25,11,29.35,29.14,16,1,16,2.49
2013-8-15,84.2,64.6,51.6,36.0,27.3,18.8,48,27,11,29.35,29.20,22,1,22,0.00
2013-8-16,88.9,62.4,54.5,38.1,31.8,19.6,49,34,10,29.32,29.23,10,1,10,18.79
2013-8-17,94.5,71.6,58.3,37.3,31.2,22.0,41,25,11,29.35,29.23,14,2,14,0.00
2013-8-18,91.2,71.7,60.3,48.1,37.3,0.0,59,31,12,29.35,29.23,24,1,24,0.00
2013-8-19,98.2,74.5,61.5,59.3,38.4,22.0,70,34,11,29.32,29.17,9,1,9,0.00
2013-8-20,96.3,76.5,62.8,53.7,37.7,22.7,60,30,11,29.35,29.23,24,1,24,0.00
2013-8-21,90.7,75.4,66.4,48.6,39.6,33.3,49,29,15,29.32,29.20,29,1,29,18.79
2013-8-22,97.0,75.7,65.7,58.4,44.6,27.1,63,37,11,29.29,29.17,24,1,24,0.04
2013-8-23,97.3,75.2,67.1,57.0,43.5,25.6,67,39,11,29.26,29.17,13,1,13,0.00
2013-8-24,99.9,75.6,61.0,40.7,33.6,21.5,46,25,10,29.41,29.26,25,2,25,0.00
2013-8-25,99.3,75.5,59.9,43.8,34.1,19.6,52,26,10,29.50,29.35,5,0,6,0.00
2013-8-26,101.8,77.1,63.5,48.8,39.3,28.1,55,30,10,29.44,29.23,7,1,7,0.00
2013-8-27,98.6,79.8,68.2,59.8,45.8,30.9,67,35,10,29.26,29.09,19,1,19,0.00
2013-8-28,102.6,82.5,72.1,61.5,46.8,28.8,67,35,10,29.17,29.00,12,2,12,0.04
2013-8-29,93.2,77.4,69.3,58.5,44.3,28.8,66,35,12,29.17,29.12,11,2,11,0.00
2013-8-30,101.5,79.0,66.4,61.2,43.0,0.0,69,35,10,29.14,29.00,17,1,17,0.00
2013-8-31,99.3,76.7,67.6,62.5,46.6,29.9,70,39,10,29.03,28.88,26,2,26,0.83
2013-9-1,96.4,74.3,66.6,55.2,47.0,28.5,64,43,11,29.00,28.88,10,1,10,0.00
2013-9-2,98.1,78.9,69.6,62.2,43.9,24.7,75,37,11,29.03,28.88,14,1,14,0.00
2013-9-3,88.3,69.7,59.7,38.4,29.0,18.5,44,24,10,29.23,29.00,10,2,10,0.00
2013-9-4,92.8,69.7,54.5,44.1,32.5,19.2,54,30,11,29.29,29.17,6,0,6,0.00
2013-9-5,97.2,76.5,59.0,47.1,32.6,20.3,57,25,10,29.32,29.23,10,1,10,19.70
2013-9-6,93.9,69.7,55.6,33.0,22.9,16.2,33,18,10,29.38,29.23,8,2,8,0.09
2013-9-7,98.8,73.2,57.2,39.7,29.7,20.6,38,22,11,29.23,29.06,7,1,7,0.00
2013-9-8,98.8,77.6,65.7,51.2,39.0,28.1,54,28,11,29.17,29.06,6,0,6,19.79
2013-9-9,101.3,80.3,67.5,55.5,40.5,27.5,62,29,10,29.17,29.09,8,1,8,19.79
2013-9-10,102.9,81.9,71.1,50.9,41.8,30.5,48,27,9,29.29,29.17,6,1,6,0.00
2013-9-11,100.4,80.5,70.2,55.0,43.3,28.1,58,32,10,29.32,29.12,8,1,8,0.00
2013-9-12,88.7,73.8,68.9,58.5,47.0,30.4,66,41,15,29.23,29.00,29,0,29,0.13
2013-9-13,73.6,62.0,53.4,39.2,23.6,12.2,39,24,14,29.23,29.03,11,2,11,0.00
2013-9-14,81.1,59.5,46.0,29.0,21.2,11.9,50,25,12,29.35,29.23,23,2,23,0.00
2013-9-15,88.0,64.8,46.9,31.8,24.1,18.5,45,24,10,29.32,29.17,9,1,9,19.83
2013-9-16,79.5,63.0,57.4,41.9,33.3,18.5,50,34,12,29.41,29.17,10,2,10,20.00
2013-9-17,82.8,64.5,51.3,33.1,26.1,16.1,49,27,11,29.50,29.29,11,3,11,19.83
2013-9-18,92.8,68.0,59.0,47.7,33.3,21.9,55,30,11,29.32,29.12,6,0,6,19.83
2013-9-19,88.2,70.5,63.3,55.6,45.8,27.0,66,46,13,29.17,29.06,26,0,26,19.83
2013-9-20,94.6,74.7,65.8,62.0,46.5,27.0,79,45,11,29.14,28.88,16,1,16,19.83
2013-9-21,81.9,66.5,56.1,61.8,42.0,15.8,82,51,12,29.00,28.82,29,1,29,19.83
2013-9-22,77.7,59.9,49.6,30.9,22.0,12.1,47,25,13,29.14,28.97,8,2,8,19.83
2013-9-23,78.1,59.2,47.3,25.6,20.7,12.5,41,24,13,29.29,29.12,3,2,3,19.83
2013-9-24,83.5,61.5,46.8,31.4,25.0,18.5,48,28,11,29.26,29.03,17,2,17,23.36
2013-9-25,82.0,62.6,54.0,31.6,26.0,13.2,41,27,12,29.09,29.00,17,1,17,19.83
2013-9-26,87.6,64.3,49.5,39.3,28.4,17.6,58,31,11,29.20,29.06,9,1,9,19.83
2013-9-27,90.3,66.7,51.6,36.9,27.1,15.5,48,27,10,29.32,29.17,16,1,16,19.83
2013-9-28,91.6,67.5,34.2,37.5,27.2,0.0,46,25,10,29.35,29.17,6,0,6,19.83
2013-9-29,76.3,63.3,57.0,41.4,33.4,26.2,51,34,18,29.23,29.12,18,1,18,19.83
2013-9-30,75.9,66.2,61.0,41.4,35.9,27.4,46,34,18,29.17,29.06,12,0,12,19.83
2013-10-1,87.1,63.6,57.4,50.6,38.8,24.1,69,43,13,29.20,29.09,6,0,6,19.83
2013-10-2,72.5,62.1,59.7,53.3,46.8,41.0,68,58,36,29.23,29.14,5,0,6,19.83
2013-10-3,82.2,71.5,66.4,59.9,49.6,34.1,72,49,20,29.20,29.06,5,0,5,0.58
2013-10-4,91.0,72.3,62.8,61.6,44.1,24.7,82,45,12,29.20,29.06,7,0,7,0.00
2013-10-5,83.8,70.8,65.8,60.5,47.8,35.2,77,47,20,29.20,29.06,6,0,6,0.54
2013-10-6,73.9,64.4,53.1,66.0,54.9,39.2,85,72,42,29.12,28.85,8,1,8,1.70
2013-10-7,69.1,54.4,45.5,45.7,26.8,12.4,74,40,15,29.26,28.97,9,1,9,0.00
2013-10-8,73.6,50.6,42.4,44.1,26.7,11.3,80,44,13,29.38,29.23,15,1,12,26.18
2013-10-9,81.7,60.0,48.4,28.6,22.2,13.1,40,25,12,29.38,29.23,8,1,8,0.00
2013-10-10,83.5,59.5,44.2,31.3,22.7,13.4,55,28,11,29.35,29.17,6,0,6,0.00
2013-10-11,88.0,59.1,47.5,33.6,23.4,15.8,50,28,10,29.29,29.12,7,0,7,0.00
2013-10-12,87.1,65.0,51.8,46.6,29.9,18.5,59,31,11,29.23,29.12,10,0,10,0.00
2013-10-13,79.2,62.8,53.1,54.2,32.0,16.2,81,35,15,29.41,29.23,11,1,11,0.00
2013-10-14,81.0,60.2,47.5,31.3,19.2,12.7,37,21,12,29.47,29.29,11,2,11,26.18
2013-10-15,78.6,61.2,54.7,44.8,34.6,27.0,56,39,18,29.35,29.03,8,0,8,26.35
2013-10-16,67.3,61.9,49.8,52.3,38.0,27.2,66,42,26,29.09,28.97,23,0,23,0.17
2013-10-17,59.0,49.5,44.4,33.0,27.5,19.8,55,43,27,29.20,29.00,8,0,6,0.46
2013-10-18,72.0,48.8,41.2,38.7,24.0,9.8,68,42,14,29.20,29.06,6,0,6,0.12
2013-10-19,49.5,46.1,38.3,30.6,25.2,20.4,53,44,37,29.14,28.97,7,0,7,0.21
2013-10-20,68.4,48.5,36.7,31.8,18.6,7.6,60,35,15,29.20,29.12,14,1,14,26.85
2013-10-21,73.6,51.6,39.7,22.5,17.3,11.3,45,28,13,29.20,29.03,16,1,16,26.85
2013-10-22,60.4,46.4,32.9,23.8,12.5,4.0,45,27,15,29.20,29.00,7,1,7,0.55
2013-10-23,49.8,42.3,36.7,23.2,13.3,3.3,47,31,20,29.20,28.88,9,1,9,0.08
2013-10-24,47.8,40.5,36.7,15.0,10.1,4.5,39,29,19,29.41,29.17,13,1,13,0.04
2013-10-25,60.4,40.6,30.0,15.1,6.0,-2.6,35,24,15,29.59,29.41,6,1,6,0.00
2013-10-26,55.9,41.7,29.1,12.3,6.3,3.0,33,24,16,29.44,29.06,14,2,22,27.52
2013-10-27,66.7,45.7,34.2,21.7,10.5,2.5,42,25,15,29.26,29.17,9,0,9,27.52
2013-10-28,72.1,47.3,33.6,24.8,13.7,4.0,46,28,14,29.44,29.23,6,1,6,27.52
2013-10-29,60.6,50.1,37.6,21.9,13.9,4.5,37,24,17,29.50,29.35,6,1,6,0.00
2013-10-30,63.1,58.5,52.9,48.5,38.9,21.7,61,48,29,29.35,29.14,27,0,27,0.09
2013-10-31,64.8,62.4,59.9,56.0,38.8,29.1,75,43,28,29.15,28.52,20,2,20,0.74
2013-11-1,69.3,57.4,48.7,50.2,23.7,10.1,65,31,15,28.91,28.55,18,2,18,0.09
2013-11-2,63.5,50.2,40.5,19.8,11.4,3.2,31,21,16,29.26,28.88,9,1,9,28.44
2013-11-3,64.2,45.3,37.8,23.1,13.4,0.0,46,29,16,29.50,29.23,6,0,6,0.08
2013-11-4,61.2,49.1,38.7,15.6,11.5,0.0,32,22,16,29.56,29.44,11,1,11,28.44
2013-11-5,66.6,55.3,50.0,17.7,13.6,5.6,27,19,15,29.56,29.38,7,1,23,0.08
2013-11-6,71.1,57.0,46.4,45.7,23.1,5.2,59,30,14,29.38,29.12,23,2,23,28.60
2013-11-7,57.6,44.6,34.9,27.6,12.2,-2.6,50,29,16,29.41,29.14,10,2,10,0.08
2013-11-8,58.6,41.3,29.1,14.7,5.3,-2.4,43,23,15,29.50,29.35,3,3,3,0.08
2013-11-9,64.2,48.7,34.3,17.1,7.0,-0.6,22,18,15,29.41,29.17,13,4,13,0.08
2013-11-10,60.1,44.9,30.7,14.9,6.3,-3.0,33,21,15,29.50,29.23,5,5,5,0.08
2013-11-11,63.5,45.1,29.5,19.8,10.5,2.8,42,26,15,29.47,29.23,5,5,5,0.08
2013-11-12,42.1,31.2,23.4,17.1,1.1,-9.9,48,28,18,29.74,29.32,6,4,6,0.08
2013-11-13,46.8,31.0,19.8,6.2,-0.9,-6.5,41,26,17,29.76,29.53,6,2,6,0.08
2013-11-14,57.6,36.6,26.8,13.1,-1.8,-8.1,23,19,14,29.56,29.32,14,3,14,1.03
2013-11-15,57.4,44.4,34.7,20.1,5.4,-2.6,35,20,15,29.35,29.23,9,1,9,0.04
2013-11-16,59.9,53.4,47.1,31.5,26.8,18.9,46,36,29,29.32,29.09,9,3,9,0.00
2013-11-17,63.3,59.1,52.0,56.3,37.2,13.3,78,47,20,29.12,28.70,25,4,25,2.04
2013-11-18,60.1,48.0,36.9,15.2,8.9,-1.5,30,20,16,29.35,28.91,15,3,15,0.00
2013-11-19,46.9,35.2,27.1,8.0,0.4,-3.0,36,23,17,29.50,29.32,21,2,21,0.00
2013-11-20,54.0,33.8,27.5,11.4,1.7,-2.4,32,26,16,29.50,29.35,30,2,30,30.89
2013-11-21,57.2,49.8,43.2,27.5,9.7,2.4,40,20,16,29.50,29.35,18,2,18,0.00
2013-11-22,54.5,49.0,38.3,38.7,25.8,6.6,55,41,26,29.50,29.35,12,2,12,0.00
2013-11-23,48.9,33.1,21.7,11.2,0.8,-11.2,40,25,16,29.71,29.47,10,3,10,0.00
2013-11-24,36.7,22.3,13.8,-1.7,-11.6,-18.6,24,21,19,29.79,29.65,4,4,4,0.00
2013-11-25,43.2,30.7,17.1,4.4,-5.1,-14.6,30,21,18,29.68,29.35,10,4,10,0.08
2013-11-26,36.7,32.9,30.6,14.9,11.5,0.8,48,41,30,29.41,29.06,3,0,3,0.00
2013-11-27,37.4,28.1,20.5,11.1,-2.7,-12.3,41,26,19,29.44,29.06,0,0,0,0.00
2013-11-28,39.4,24.7,14.9,0.3,-7.8,-15.3,33,23,18,29.59,29.41,0,0,0,0.00
2013-11-29,48.2,29.6,16.9,5.0,-3.7,-9.1,38,24,17,29.74,29.56,6,1,6,0.04
2013-11-30,53.8,36.9,24.4,8.4,0.5,-6.0,32,22,15,29.68,29.32,0,0,0,0.21
2013-12-1,54.9,44.2,33.8,12.2,3.9,-3.0,20,18,15,29.35,29.12,8,1,8,0.00
2013-12-2,55.2,45.6,37.6,14.3,8.8,2.6,31,22,18,29.12,28.94,5,2,5,0.00
2013-12-3,57.0,45.8,34.0,27.8,18.7,12.6,49,34,22,29.06,28.94,7,2,7,0.00
2013-12-4,63.1,55.6,45.9,33.6,28.3,22.3,51,36,26,29.03,28.88,10,2,10,0.00
2013-12-5,61.9,49.3,33.1,45.6,25.0,11.2,58,39,29,29.32,28.91,14,2,14,0.70
2013-12-6,33.3,29.7,26.4,14.6,11.4,8.3,50,46,40,29.50,29.26,6,0,6,0.21
2013-12-7,40.3,25.7,19.2,8.9,0.3,-8.2,47,34,19,29.71,29.47,0,0,0,0.00
2013-12-8,32.5,26.0,19.6,17.3,3.7,-4.4,53,38,31,29.68,29.14,0,0,0,0.00
2013-12-9,32.9,30.2,25.2,21.7,9.4,0.8,63,42,30,29.35,29.14,0,0,0,0.00
2013-12-10,36.0,24.6,14.2,5.1,-4.0,-14.0,42,29,19,29.50,29.29,7,0,7,0.00
2013-12-11,42.4,24.2,11.5,3.8,-5.9,-13.1,44,27,18,29.62,29.41,0,0,0,0.00
2013-12-12,32.5,18.8,7.0,-4.2,-13.3,-22.2,24,23,20,29.71,29.47,9,2,9,0.91
2013-12-13,45.5,29.6,16.2,3.4,-6.1,-16.1,23,21,17,29.50,29.26,10,1,10,0.04
2013-12-14,39.4,36.1,33.4,25.1,14.9,-3.2,57,43,22,29.32,28.85,0,0,0,0.50
2013-12-15,34.9,29.5,27.9,14.1,2.8,-3.7,44,32,23,29.29,28.97,10,2,10,0.00
2013-12-16,37.2,31.7,27.0,13.7,9.0,-0.9,46,38,28,29.29,29.12,7,0,7,0.04
2013-12-17,36.9,32.1,28.6,16.2,7.9,0.6,48,36,27,29.35,29.12,13,2,13,0.00
2013-12-18,40.8,31.7,23.9,5.6,-0.2,-4.7,42,26,18,29.41,29.20,12,3,12,0.00
2013-12-19,57.9,45.7,32.9,13.4,4.9,-3.8,20,18,15,29.26,29.12,19,4,19,0.00
2013-12-20,58.6,53.3,47.3,38.9,20.9,4.1,49,30,16,29.14,29.00,15,4,15,0.04
2013-12-21,66.6,60.0,55.8,54.4,43.4,31.3,80,56,33,29.03,28.64,20,4,20,1.82
2013-12-22,60.6,53.6,39.7,51.6,28.3,14.9,77,40,23,29.20,28.73,11,4,13,0.34
2013-12-23,42.1,33.9,24.8,17.0,1.8,-9.4,39,26,18,29.50,29.17,9,3,9,0.00
2013-12-24,30.2,22.4,13.3,-1.2,-8.4,-16.8,32,25,20,29.68,29.50,9,3,9,0.00
2013-12-25,37.8,27.9,16.9,-0.8,-6.4,-13.1,26,22,19,29.62,29.32,22,2,22,0.00
2013-12-26,46.2,35.0,28.6,3.8,-2.0,-7.4,25,20,17,29.50,29.32,10,3,11,0.00
2013-12-27,53.8,36.5,24.1,8.2,-0.2,-8.7,33,21,15,29.56,29.41,8,2,8,0.00
2013-12-28,56.5,40.9,29.3,12.5,1.5,-5.9,25,19,15,29.44,29.14,9,2,9,0.00
2013-12-29,43.2,38.6,33.6,18.9,9.5,-0.7,43,31,18,29.20,29.00,10,1,10,0.33
2013-12-30,33.8,28.6,22.5,11.1,-1.5,-9.6,40,27,20,29.38,29.17,8,2,8,0.29
2013-12-31,37.9,28.0,21.9,-0.6,-6.3,-9.4,27,22,19,29.53,29.32,11,3,12,0.29
2014-1-1,51.3,34.1,22.6,6.6,-0.6,-9.9,33,23,16,29.44,29.00,10,1,10,0.29
2014-1-2,78.3,26.2,10.4,13.0,0.2,-30.0,42,33,1,29.41,28.94,16,2,16,0.00